Home   Weather   Kehl   Past weeks

Flag for Germany Past Weather in Kehl, Baden-Württemberg, Germany — Yesterday and Last 2 Weeks

Now
73 °F

Sunny.


Feels Like: 76 °F
Forecast: 56 / 81 °F
Wind: 12 mph from Northeast

Location: Strasbourg Airport

Current Time: Aug 30, 2016 at 11:29:55 AM

Latest Report: Aug 30, 2016 at 11:00 AM


Visibility: 10 mi

Pressure: 30.24 "Hg

Humidity: 61%

Dew Point: 59 °F

Location of KehlLocation

Past Weather in Kehl — Graph

°F

Kehl Temperature Yesterday

Maximum temperature yesterday: 82 °F (at 3:00 PM)
Minimum temperature yesterday: 66 °F (at 6:00 AM)
Average temperature yesterday: 73 °F

High & Low Weather Summary for the Past Weeks

 TemperatureHumidityPressure
High97 °F (Aug 26, 5:00 PM)100% (Aug 19, 8:30 AM)30.39 "Hg (Aug 19, 8:30 AM)
Low52 °F (Aug 22, 3:30 AM)28% (Aug 29, 5:30 PM)29.83 "Hg (Aug 17, 6:00 PM)
Average70 °F71%30.09 "Hg
* Reported Aug 16 10:30 AM — Aug 30 10:00 AM, Kehl, Weather by CustomWeather, © 2016

Note: Actual official high and low records may vary slightly from our data, if they occured in-between our weather recording intervals... More about our weather records

Advertising

Kehl Weather History for the Previous 24 Hours

Scroll right to see more
 ConditionsComfort  
Time TempWeatherWind HumidityBarometerVisibility
10:00 AM
Tue, Aug 30
70 °FPassing clouds.9 mph64%30.24 "HgN/A
9:30 AM68 °FPassing clouds.10 mph69%30.24 "HgN/A
9:00 AM66 °FPassing clouds.9 mph73%30.24 "HgN/A
8:30 AM64 °FSunny.8 mph78%30.24 "Hg10 mi
8:00 AM63 °FSunny.7 mph83%30.21 "Hg10 mi
7:30 AM61 °FClear.9 mph88%30.21 "Hg10 mi
7:00 AM61 °FPassing clouds.7 mph83%30.21 "HgN/A
6:30 AM61 °FPassing clouds.6 mph83%30.21 "HgN/A
6:00 AM61 °FPassing clouds.3 mph83%30.21 "HgN/A
5:30 AM61 °FPassing clouds.6 mph88%30.21 "HgN/A
5:00 AM61 °FPassing clouds.2 mph83%30.21 "HgN/A
4:30 AM63 °FClear.6 mph77%30.21 "Hg10 mi
4:00 AM63 °FClear.7 mph83%30.18 "Hg10 mi
3:30 AM63 °FClear.7 mph83%30.21 "Hg10 mi
3:00 AM63 °FClear.6 mph83%30.21 "Hg10 mi
2:30 AM64 °FClear.5 mph78%30.21 "Hg10 mi
2:00 AM64 °FClear.5 mph78%30.21 "Hg10 mi
1:30 AM64 °FPassing clouds.5 mph78%30.21 "HgN/A
1:00 AM66 °FPartly cloudy.3 mph68%30.21 "HgN/A
12:30 AM66 °FPartly cloudy.5 mph68%30.21 "HgN/A
12:00 AM66 °FClear.6 mph68%30.18 "Hg10 mi
11:30 PM
Mon, Aug 29
66 °FClear.3 mph68%30.18 "Hg10 mi
11:00 PM66 °FClear.3 mph73%30.18 "Hg10 mi
10:30 PM66 °FClear.6 mph73%30.18 "Hg10 mi
10:00 PM68 °FPassing clouds.6 mph64%30.18 "HgN/A
9:30 PM68 °FPassing clouds.7 mph64%30.15 "HgN/A
9:00 PM68 °FSunny.7 mph64%30.15 "Hg10 mi
8:30 PM70 °FSunny.7 mph60%30.15 "Hg10 mi
8:00 PM72 °FSunny.9 mph57%30.12 "Hg10 mi
7:30 PM73 °FSunny.9 mph53%30.12 "Hg10 mi
7:00 PM75 °FSunny.10 mph47%30.12 "Hg10 mi
6:30 PM79 °FSunny.9 mph39%30.12 "Hg10 mi
6:00 PM79 °FSunny.9 mph37%30.09 "Hg10 mi
5:30 PM81 °FSunny.12 mph28%30.09 "Hg10 mi
5:00 PM81 °FPassing clouds.10 mph32%30.09 "HgN/A
4:30 PM82 °FSunny.12 mph35%30.09 "Hg10 mi
4:00 PM79 °FPassing clouds.10 mph37%30.09 "HgN/A
3:30 PM81 °FPassing clouds.5 mph37%30.09 "HgN/A
3:00 PM82 °FPassing clouds.9 mph35%30.09 "HgN/A
2:30 PM81 °FPassing clouds.7 mph39%30.09 "HgN/A
2:00 PM79 °FPartly sunny.8 mph42%30.09 "HgN/A
1:30 PM79 °FPartly sunny.3 mph45%30.12 "HgN/A
1:00 PM79 °FPartly sunny.7 mph42%30.12 "HgN/A
12:30 PM77 °FPartly sunny.9 mph47%30.12 "HgN/A
12:00 PM77 °FPassing clouds.8 mph47%30.12 "HgN/A
11:30 AM77 °FPassing clouds.12 mph51%30.12 "HgN/A
11:00 AM77 °FPassing clouds.8 mph47%30.12 "HgN/A
Weather by CustomWeather, © 2016

See weather overviewHow to use our weather pages